| time (UTC) | temp F | wind direction | speed knots | gust knots | rain 1hr in | rain 24hr in | rain mn in | humidity % | barometer mb |
| 20260505122518 | 53 | 162 | 0.0 | 2.6 | 0.00 | 0.00 | 0.00 | 89 | 1017.3 |
| 20260505122018 | 53 | 158 | 0.0 | 4.3 | 0.00 | 0.00 | 0.00 | 89 | 1017.3 |
| 20260505121536 | 53 | 165 | 1.7 | 4.3 | 0.00 | 0.00 | 0.00 | 89 | 1017.2 |
| 20260505121018 | 53 | 0 | 0.9 | 4.3 | 0.00 | 0.00 | 0.00 | 89 | 1017.2 |
| 20260505120518 | 53 | 154 | 1.7 | 4.3 | 0.00 | 0.00 | 0.00 | 88 | 1017.1 |
| 20260505120046 | 53 | 188 | 0.9 | 3.5 | 0.00 | 0.00 | 0.00 | 88 | 1017.1 |
| 20260505115518 | 53 | 0 | 0.0 | 2.6 | 0.00 | 0.00 | 0.00 | 88 | 1017.1 |
| 20260505115019 | 53 | 177 | 0.0 | 3.5 | 0.00 | 0.00 | 0.00 | 88 | 1017.1 |
| 20260505114546 | 53 | 192 | 0.9 | 4.3 | 0.00 | 0.00 | 0.00 | 88 | 1017.2 |
| 20260505114019 | 53 | 199 | 1.7 | 4.3 | 0.00 | 0.00 | 0.00 | 88 | 1017.1 |
| 20260505113518 | 53 | 182 | 1.7 | 5.2 | 0.00 | 0.00 | 0.00 | 88 | 1017.1 |
| 20260505113034 | 53 | 275 | 1.7 | 5.2 | 0.00 | 0.00 | 0.00 | 88 | 1017.0 |
| 20260505112518 | 53 | 215 | 0.9 | 6.1 | 0.00 | 0.00 | 0.00 | 88 | 1017.1 |
| 20260505112018 | 53 | 0 | 0.9 | 6.1 | 0.00 | 0.00 | 0.00 | 88 | 1017.1 |
| 20260505111533 | 53 | 210 | 1.7 | 6.1 | 0.00 | 0.00 | 0.00 | 88 | 1017.1 |
| 20260505111018 | 53 | 192 | 0.0 | 4.3 | 0.00 | 0.00 | 0.00 | 89 | 1017.1 |
| 20260505110517 | 53 | 253 | 0.9 | 4.3 | 0.00 | 0.00 | 0.00 | 89 | 1017.1 |
| 20260505102017 | 53 | 219 | 0.9 | 3.5 | 0.00 | 0.00 | 0.00 | 89 | 1016.6 |
| 20260505101530 | 53 | 0 | 0.9 | 3.5 | 0.00 | 0.00 | 0.00 | 89 | 1016.6 |
| 20260505101020 | 53 | 224 | 1.7 | 3.5 | 0.00 | 0.00 | 0.00 | 89 | 1016.5 |
| 20260505100519 | 53 | 217 | 1.7 | 3.5 | 0.00 | 0.00 | 0.00 | 89 | 1016.5 |
| 20260505100037 | 53 | 205 | 0.0 | 2.6 | 0.00 | 0.00 | 0.00 | 90 | 1016.5 |
| 20260505095517 | 53 | 217 | 0.0 | 2.6 | 0.00 | 0.00 | 0.00 | 89 | 1016.5 |
| 20260505095018 | 53 | 198 | 0.0 | 2.6 | 0.00 | 0.00 | 0.00 | 89 | 1016.5 |
| 20260505094536 | 53 | 0 | 0.0 | 2.6 | 0.00 | 0.00 | 0.00 | 89 | 1016.4 |
| 20260505094018 | 53 | 220 | 0.9 | 2.6 | 0.00 | 0.00 | 0.00 | 89 | 1016.4 |
| 20260505093518 | 53 | 234 | 0.9 | 2.6 | 0.00 | 0.00 | 0.00 | 89 | 1016.4 |
| 20260505093043 | 52 | 0 | 0.0 | 2.6 | 0.00 | 0.00 | 0.00 | 89 | 1016.3 |
| 20260505092519 | 52 | 236 | 0.9 | 2.6 | 0.00 | 0.00 | 0.00 | 89 | 1016.4 |
| 20260505092018 | 53 | 227 | 0.9 | 3.5 | 0.00 | 0.00 | 0.00 | 89 | 1016.3 |
| 20260505091543 | 53 | 219 | 0.9 | 3.5 | 0.00 | 0.00 | 0.00 | 88 | 1016.3 |
| 20260505091018 | 53 | 229 | 0.9 | 3.5 | 0.00 | 0.00 | 0.00 | 88 | 1016.2 |
| 20260505090518 | 53 | 223 | 1.7 | 4.3 | 0.00 | 0.00 | 0.00 | 88 | 1016.2 |
| 20260505090048 | 53 | 229 | 1.7 | 5.2 | 0.00 | 0.00 | 0.00 | 88 | 1016.2 |
| 20260505085519 | 53 | 230 | 1.7 | 5.2 | 0.00 | 0.00 | 0.00 | 88 | 1016.2 |
| 20260505085019 | 53 | 224 | 0.9 | 4.3 | 0.00 | 0.00 | 0.00 | 88 | 1016.2 |
| 20260505084535 | 53 | 0 | 0.9 | 2.6 | 0.00 | 0.00 | 0.00 | 88 | 1016.2 |
| 20260505084018 | 53 | 0 | 0.0 | 3.5 | 0.00 | 0.00 | 0.00 | 88 | 1016.2 |
| 20260505083518 | 53 | 241 | 0.9 | 3.5 | 0.00 | 0.00 | 0.00 | 88 | 1016.2 |
| 20260505083034 | 53 | 220 | 0.9 | 3.5 | 0.00 | 0.00 | 0.00 | 88 | 1016.2 |
| 20260505082522 | 53 | 172 | 0.9 | 3.5 | 0.00 | 0.00 | 0.00 | 88 | 1016.3 |
| 20260505082018 | 53 | 179 | 0.9 | 3.5 | 0.00 | 0.00 | 0.00 | 87 | 1016.3 |
| 20260505081538 | 53 | 181 | 0.9 | 4.3 | 0.00 | 0.00 | 0.00 | 87 | 1016.2 |
| 20260505081018 | 53 | 169 | 0.9 | 4.3 | 0.00 | 0.00 | 0.00 | 87 | 1016.2 |
| 20260505080518 | 53 | 0 | 0.0 | 3.5 | 0.00 | 0.00 | 0.00 | 87 | 1016.1 |
| 20260505080049 | 53 | 178 | 0.9 | 3.5 | 0.00 | 0.00 | 0.00 | 87 | 1016.2 |
| 20260505075517 | 54 | 204 | 0.0 | 2.6 | 0.00 | 0.00 | 0.00 | 86 | 1016.1 |
| 20260505075018 | 54 | 234 | 0.9 | 2.6 | 0.00 | 0.00 | 0.00 | 86 | 1016.2 |
| 20260505074535 | 54 | 0 | 0.9 | 2.6 | 0.00 | 0.00 | 0.00 | 86 | 1016.0 |
| 20260505074019 | 54 | 0 | 0.9 | 3.5 | 0.00 | 0.00 | 0.00 | 85 | 1016.0 |
| 20260505073519 | 54 | 0 | 0.0 | 3.5 | 0.00 | 0.00 | 0.00 | 85 | 1015.9 |
| 20260505073048 | 54 | 202 | 0.9 | 4.3 | 0.00 | 0.00 | 0.00 | 85 | 1015.9 |
| 20260505072518 | 54 | 206 | 0.9 | 4.3 | 0.00 | 0.00 | 0.00 | 85 | 1015.9 |
| 20260505072018 | 55 | 230 | 1.7 | 4.3 | 0.00 | 0.00 | 0.00 | 85 | 1015.8 |
| 20260505071533 | 55 | 193 | 1.7 | 4.3 | 0.00 | 0.00 | 0.00 | 84 | 1015.8 |
| 20260505071018 | 55 | 202 | 0.9 | 3.5 | 0.00 | 0.00 | 0.00 | 84 | 1015.7 |
| 20260505070518 | 55 | 240 | 0.9 | 3.5 | 0.00 | 0.00 | 0.00 | 83 | 1015.5 |
| 20260505070033 | 55 | 227 | 1.7 | 3.5 | 0.00 | 0.00 | 0.00 | 83 | 1015.5 |
| 20260505065518 | 55 | 215 | 0.9 | 3.5 | 0.00 | 0.00 | 0.00 | 83 | 1015.5 |
| 20260505065018 | 56 | 223 | 0.9 | 3.5 | 0.00 | 0.00 | 0.00 | 82 | 1015.5 |
| 20260505064537 | 56 | 221 | 1.7 | 3.5 | 0.00 | 0.00 | 0.00 | 82 | 1015.4 |
| 20260505064018 | 56 | 229 | 1.7 | 3.5 | 0.00 | 0.00 | 0.00 | 82 | 1015.3 |
| 20260505063522 | 56 | 200 | 0.0 | 2.6 | 0.00 | 0.00 | 0.00 | 81 | 1015.3 |
| 20260505063036 | 56 | 219 | 0.9 | 2.6 | 0.00 | 0.00 | 0.00 | 81 | 1015.2 |
| 20260505062518 | 57 | 239 | 0.0 | 2.6 | 0.00 | 0.00 | 0.00 | 81 | 1015.2 |
| 20260505062017 | 57 | 0 | 0.0 | 0.0 | 0.00 | 0.00 | 0.00 | 80 | 1015.1 |
| 20260505061539 | 57 | 0 | 0.0 | 0.0 | 0.00 | 0.00 | 0.00 | 80 | 1015.0 |
| 20260505061020 | 57 | 0 | 0.0 | 1.7 | 0.00 | 0.00 | 0.00 | 79 | 1015.0 |
| 20260505060518 | 58 | 0 | 0.0 | 1.7 | 0.00 | 0.00 | 0.00 | 79 | 1014.9 |
| 20260505060037 | 58 | 0 | 0.0 | 2.6 | 0.00 | 0.00 | 0.00 | 78 | 1014.9 |
| 20260505055520 | 58 | 0 | 0.0 | 2.6 | 0.00 | 0.00 | 0.00 | 78 | 1014.8 |
| 20260505055015 | 58 | 0 | 0.0 | 2.6 | 0.00 | 0.00 | 0.00 | 77 | 1014.8 |
| 20260505054538 | 59 | 0 | 0.0 | 0.9 | 0.00 | 0.00 | 0.00 | 76 | 1014.7 |
| 20260505054017 | 59 | 0 | 0.0 | 1.7 | 0.00 | 0.00 | 0.00 | 76 | 1014.7 |
| 20260505053518 | 59 | 0 | 0.0 | 1.7 | 0.00 | 0.00 | 0.00 | 75 | 1014.7 |
| 20260505053037 | 60 | 0 | 0.0 | 3.5 | 0.00 | 0.00 | 0.00 | 75 | 1014.7 |
| 20260505052521 | 60 | 0 | 0.0 | 3.5 | 0.00 | 0.00 | 0.00 | 74 | 1014.6 |
| 20260505052020 | 60 | 287 | 0.9 | 3.5 | 0.00 | 0.00 | 0.00 | 73 | 1014.6 |
| 20260505051536 | 60 | 254 | 0.9 | 3.5 | 0.00 | 0.00 | 0.00 | 73 | 1014.4 |
| 20260505051019 | 61 | 244 | 0.9 | 3.5 | 0.00 | 0.00 | 0.00 | 73 | 1014.4 |
| 20260505050518 | 61 | 227 | 0.0 | 4.3 | 0.00 | 0.00 | 0.00 | 72 | 1014.4 |
| 20260505050117 | 61 | 251 | 0.9 | 7.0 | 0.00 | 0.00 | 0.00 | 71 | 1014.3 |
| 20260505041549 | 64 | 244 | 1.7 | 7.8 | 0.00 | 0.00 | 0.00 | 67 | 1013.8 |
| 20260505041018 | 64 | 219 | 2.6 | 7.8 | 0.00 | 0.00 | 0.00 | 66 | 1013.8 |
| 20260505040520 | 65 | 273 | 2.6 | 7.8 | 0.00 | 0.00 | 0.00 | 66 | 1013.6 |
| 20260505040034 | 65 | 220 | 3.5 | 7.8 | 0.00 | 0.00 | 0.00 | 65 | 1013.6 |
| 20260505035518 | 65 | 211 | 2.6 | 7.0 | 0.00 | 0.00 | 0.00 | 65 | 1013.6 |
| 20260505035018 | 66 | 225 | 2.6 | 7.0 | 0.00 | 0.00 | 0.00 | 64 | 1013.5 |
| 20260505034537 | 66 | 222 | 2.6 | 7.0 | 0.00 | 0.00 | 0.00 | 64 | 1013.3 |
| 20260505034020 | 67 | 313 | 1.7 | 8.7 | 0.00 | 0.00 | 0.00 | 63 | 1013.2 |
| 20260505033518 | 67 | 223 | 0.9 | 8.7 | 0.00 | 0.00 | 0.00 | 62 | 1013.2 |
| 20260505033042 | 67 | 267 | 3.5 | 8.7 | 0.00 | 0.00 | 0.00 | 61 | 1013.1 |
| 20260505032523 | 68 | 229 | 2.6 | 7.0 | 0.00 | 0.00 | 0.00 | 60 | 1013.1 |
| 20260505032019 | 68 | 273 | 3.5 | 7.0 | 0.00 | 0.00 | 0.00 | 59 | 1013.0 |
| 20260505031544 | 69 | 244 | 0.9 | 6.1 | 0.00 | 0.00 | 0.00 | 58 | 1012.9 |
| 20260505031018 | 69 | 246 | 1.7 | 7.8 | 0.00 | 0.00 | 0.00 | 57 | 1012.9 |
| 20260505030518 | 70 | 277 | 1.7 | 7.8 | 0.00 | 0.00 | 0.00 | 57 | 1012.8 |
| 20260505030040 | 70 | 225 | 1.7 | 7.8 | 0.00 | 0.00 | 0.00 | 56 | 1012.7 |
| 20260505025518 | 71 | 254 | 2.6 | 7.8 | 0.00 | 0.00 | 0.00 | 55 | 1012.7 |
| 20260505025020 | 71 | 274 | 1.7 | 6.1 | 0.00 | 0.00 | 0.00 | 55 | 1012.6 |
| 20260505024530 | 72 | 262 | 1.7 | 8.7 | 0.00 | 0.00 | 0.00 | 55 | 1012.5 |
| 20260505024018 | 72 | 250 | 1.7 | 8.7 | 0.00 | 0.00 | 0.00 | 55 | 1012.5 |
| 20260505023519 | 73 | 252 | 2.6 | 7.8 | 0.00 | 0.00 | 0.00 | 54 | 1012.5 |
| 20260505023043 | 73 | 261 | 1.7 | 6.1 | 0.00 | 0.00 | 0.00 | 54 | 1012.4 |
| 20260505022521 | 73 | 106 | 0.9 | 5.2 | 0.00 | 0.00 | 0.00 | 53 | 1012.4 |
| 20260505022018 | 74 | 0 | 0.0 | 7.0 | 0.00 | 0.00 | 0.00 | 52 | 1012.4 |
| 20260505021540 | 74 | 0 | 2.6 | 7.0 | 0.00 | 0.00 | 0.00 | 51 | 1012.4 |
| 20260505021018 | 75 | 0 | 1.7 | 6.1 | 0.00 | 0.00 | 0.00 | 50 | 1012.4 |
| 20260505020518 | 76 | 296 | 1.7 | 7.0 | 0.00 | 0.00 | 0.00 | 49 | 1012.5 |
| 20260505020036 | 76 | 212 | 1.7 | 7.0 | 0.00 | 0.00 | 0.00 | 47 | 1012.4 |
| 20260505015518 | 76 | 236 | 0.9 | 4.3 | 0.00 | 0.00 | 0.00 | 47 | 1012.5 |
| 20260505015018 | 76 | 271 | 0.9 | 5.2 | 0.00 | 0.00 | 0.00 | 47 | 1012.4 |
| 20260505014553 | 76 | 250 | 0.9 | 8.7 | 0.00 | 0.00 | 0.00 | 46 | 1012.4 |
| 20260505014018 | 76 | 226 | 1.7 | 8.7 | 0.00 | 0.00 | 0.00 | 46 | 1012.4 |
| 20260505013522 | 77 | 213 | 0.9 | 6.1 | 0.00 | 0.00 | 0.00 | 45 | 1012.4 |
| 20260505013031 | 77 | 246 | 0.9 | 8.7 | 0.00 | 0.00 | 0.00 | 44 | 1012.5 |
| 20260505012518 | 77 | 215 | 3.5 | 8.7 | 0.00 | 0.00 | 0.00 | 44 | 1012.4 |
| 20260505012018 | 77 | 282 | 1.7 | 6.1 | 0.00 | 0.00 | 0.00 | 44 | 1012.4 |
| 20260505011537 | 77 | 5 | 0.9 | 3.5 | 0.00 | 0.00 | 0.00 | 43 | 1012.5 |
| 20260505011021 | 77 | 246 | 0.9 | 7.0 | 0.00 | 0.00 | 0.00 | 43 | 1012.5 |
| 20260505010517 | 78 | 0 | 0.0 | 7.0 | 0.00 | 0.00 | 0.00 | 41 | 1012.5 |
| 20260505010036 | 78 | 235 | 3.5 | 7.0 | 0.00 | 0.00 | 0.00 | 40 | 1012.5 |
| 20260505005519 | 78 | 281 | 0.9 | 5.2 | 0.00 | 0.00 | 0.00 | 38 | 1012.6 |
| 20260505005019 | 78 | 290 | 0.9 | 4.3 | 0.00 | 0.00 | 0.00 | 39 | 1012.6 |
| 20260505004539 | 78 | 333 | 0.9 | 6.1 | 0.00 | 0.00 | 0.00 | 35 | 1012.6 |
| 20260505004018 | 78 | 0 | 0.0 | 6.1 | 0.00 | 0.00 | 0.00 | 37 | 1012.7 |
| 20260505003518 | 78 | 251 | 0.9 | 5.2 | 0.00 | 0.00 | 0.00 | 35 | 1012.6 |
| 20260505003035 | 79 | 241 | 1.7 | 7.0 | 0.00 | 0.00 | 0.00 | 35 | 1012.6 |
| 20260505002518 | 79 | 261 | 0.9 | 7.0 | 0.00 | 0.00 | 0.00 | 35 | 1012.5 |
| 20260505002018 | 79 | 278 | 1.7 | 9.6 | 0.00 | 0.00 | 0.00 | 36 | 1012.5 |
| 20260505001530 | 79 | 242 | 3.5 | 9.6 | 0.00 | 0.00 | 0.00 | 36 | 1012.6 |
| 20260505001017 | 80 | 257 | 3.5 | 8.7 | 0.00 | 0.00 | 0.00 | 35 | 1012.5 |
| 20260505000520 | 80 | 234 | 2.6 | 8.7 | 0.00 | 0.00 | 0.00 | 35 | 1012.5 |
| 20260505000040 | 79 | 231 | 2.6 | 8.7 | 0.00 | 0.00 | 0.00 | 34 | 1012.6 |
| 20260504235519 | 80 | 252 | 4.3 | 8.7 | 0.00 | 0.00 | 0.00 | 34 | 1012.5 |
| 20260504235019 | 80 | 213 | 0.9 | 7.8 | 0.00 | 0.00 | 0.00 | 33 | 1012.5 |
| 20260504234546 | 80 | 309 | 1.7 | 7.8 | 0.00 | 0.00 | 0.00 | 32 | 1012.5 |
| 20260504234018 | 80 | 251 | 2.6 | 7.8 | 0.00 | 0.00 | 0.00 | 31 | 1012.5 |
| 20260504233518 | 79 | 274 | 2.6 | 7.8 | 0.00 | 0.00 | 0.00 | 31 | 1012.6 |
| 20260504233035 | 79 | 34 | 1.7 | 6.1 | 0.00 | 0.00 | 0.00 | 34 | 1012.5 |
| 20260504232520 | 79 | 273 | 1.7 | 5.2 | 0.00 | 0.00 | 0.00 | 34 | 1012.5 |
| 20260504232018 | 79 | 273 | 1.7 | 7.8 | 0.00 | 0.00 | 0.00 | 33 | 1012.5 |
| 20260504231537 | 79 | 182 | 2.6 | 9.6 | 0.00 | 0.00 | 0.00 | 31 | 1012.7 |
| 20260504231018 | 79 | 217 | 4.3 | 9.6 | 0.00 | 0.00 | 0.00 | 32 | 1012.7 |
| 20260504230518 | 79 | 296 | 4.3 | 8.7 | 0.00 | 0.00 | 0.00 | 32 | 1012.8 |
| 20260504230031 | 80 | 249 | 1.7 | 7.8 | 0.00 | 0.00 | 0.00 | 32 | 1012.8 |
| 20260504225518 | 79 | 215 | 1.7 | 7.0 | 0.00 | 0.00 | 0.00 | 34 | 1012.9 |
| 20260504225017 | 79 | 254 | 2.6 | 7.8 | 0.00 | 0.00 | 0.00 | 33 | 1013.0 |
| 20260504224536 | 80 | 350 | 0.9 | 7.8 | 0.00 | 0.00 | 0.00 | 34 | 1013.0 |
| 20260504224019 | 79 | 244 | 0.9 | 6.1 | 0.00 | 0.00 | 0.00 | 35 | 1013.0 |
| 20260504223518 | 79 | 292 | 1.7 | 6.1 | 0.00 | 0.00 | 0.00 | 36 | 1013.0 |
| 20260504223042 | 78 | 220 | 2.6 | 6.1 | 0.00 | 0.00 | 0.00 | 38 | 1013.0 |
| 20260504222518 | 78 | 258 | 0.9 | 7.8 | 0.00 | 0.00 | 0.00 | 38 | 1013.1 |
| 20260504222019 | 78 | 313 | 1.7 | 7.8 | 0.00 | 0.00 | 0.00 | 37 | 1013.1 |
| 20260504221537 | 78 | 11 | 1.7 | 5.2 | 0.00 | 0.00 | 0.00 | 39 | 1013.1 |
| 20260504221018 | 79 | 46 | 1.7 | 7.8 | 0.00 | 0.00 | 0.00 | 39 | 1013.2 |
| 20260504220518 | 79 | 226 | 2.6 | 8.7 | 0.00 | 0.00 | 0.00 | 39 | 1013.2 |
| 20260504220036 | 79 | 24 | 1.7 | 8.7 | 0.00 | 0.00 | 0.00 | 39 | 1013.3 |
| 20260504215518 | 78 | 231 | 1.7 | 8.7 | 0.00 | 0.00 | 0.00 | 39 | 1013.2 |
| 20260504215017 | 78 | 238 | 2.6 | 9.6 | 0.00 | 0.00 | 0.00 | 38 | 1013.3 |
| 20260504214536 | 78 | 0 | 0.9 | 10.4 | 0.00 | 0.00 | 0.00 | 41 | 1013.3 |
| 20260504214018 | 78 | 230 | 5.2 | 10.4 | 0.00 | 0.00 | 0.00 | 39 | 1013.3 |
| 20260504213518 | 78 | 202 | 1.7 | 7.8 | 0.00 | 0.00 | 0.00 | 42 | 1013.3 |
| 20260504213054 | 78 | 226 | 3.5 | 8.7 | 0.00 | 0.00 | 0.00 | 40 | 1013.3 |
| 20260504212518 | 78 | 228 | 4.3 | 8.7 | 0.00 | 0.00 | 0.00 | 41 | 1013.4 |
| 20260504212018 | 77 | 5 | 3.5 | 8.7 | 0.00 | 0.00 | 0.00 | 44 | 1013.4 |
| 20260504211538 | 77 | 236 | 0.9 | 9.6 | 0.00 | 0.00 | 0.00 | 42 | 1013.5 |
| 20260504211021 | 77 | 246 | 5.2 | 11.3 | 0.00 | 0.00 | 0.00 | 42 | 1013.4 |
| 20260504210518 | 78 | 0 | 3.5 | 11.3 | 0.00 | 0.00 | 0.00 | 44 | 1013.5 |
| 20260504210038 | 77 | 229 | 3.5 | 11.3 | 0.00 | 0.00 | 0.00 | 42 | 1013.5 |
| 20260504205518 | 78 | 242 | 4.3 | 9.6 | 0.00 | 0.00 | 0.00 | 42 | 1013.6 |
| 20260504205018 | 78 | 266 | 2.6 | 7.8 | 0.00 | 0.00 | 0.00 | 41 | 1013.7 |
| 20260504204534 | 78 | 230 | 1.7 | 7.8 | 0.00 | 0.00 | 0.00 | 41 | 1013.6 |
| 20260504204018 | 78 | 279 | 3.5 | 7.8 | 0.00 | 0.00 | 0.00 | 43 | 1013.6 |
| 20260504203518 | 78 | 223 | 2.6 | 7.8 | 0.00 | 0.00 | 0.00 | 43 | 1013.6 |
| 20260504203035 | 78 | 136 | 1.7 | 8.7 | 0.00 | 0.00 | 0.00 | 43 | 1013.6 |
| 20260504202518 | 77 | 247 | 3.5 | 8.7 | 0.00 | 0.00 | 0.00 | 45 | 1013.6 |
| 20260504202017 | 78 | 220 | 2.6 | 7.0 | 0.00 | 0.00 | 0.00 | 43 | 1013.6 |
| 20260504201534 | 78 | 211 | 2.6 | 7.0 | 0.00 | 0.00 | 0.00 | 43 | 1013.6 |
| 20260504201022 | 77 | 267 | 1.7 | 7.0 | 0.00 | 0.00 | 0.00 | 45 | 1013.6 |
| 20260504200518 | 76 | 247 | 1.7 | 6.1 | 0.00 | 0.00 | 0.00 | 47 | 1013.7 |
| 20260504200036 | 76 | 360 | 0.9 | 9.6 | 0.00 | 0.00 | 0.00 | 45 | 1013.7 |
| 20260504195518 | 76 | 246 | 2.6 | 9.6 | 0.00 | 0.00 | 0.00 | 44 | 1013.8 |
| 20260504195018 | 77 | 236 | 2.6 | 9.6 | 0.00 | 0.00 | 0.00 | 40 | 1013.9 |
| 20260504194542 | 77 | 82 | 0.9 | 6.1 | 0.00 | 0.00 | 0.00 | 42 | 1013.8 |
| 20260504194018 | 77 | 316 | 2.6 | 6.1 | 0.00 | 0.00 | 0.00 | 41 | 1013.8 |
| 20260504193519 | 77 | 106 | 1.7 | 7.0 | 0.00 | 0.00 | 0.00 | 42 | 1013.9 |
| 20260504193043 | 77 | 263 | 0.9 | 7.0 | 0.00 | 0.00 | 0.00 | 42 | 1013.9 |
| 20260504192518 | 76 | 227 | 2.6 | 6.1 | 0.00 | 0.00 | 0.00 | 43 | 1013.9 |
| 20260504192018 | 76 | 0 | 1.7 | 6.1 | 0.00 | 0.00 | 0.00 | 43 | 1014.0 |
| 20260504191534 | 77 | 27 | 2.6 | 6.1 | 0.00 | 0.00 | 0.00 | 42 | 1014.0 |
| 20260504191021 | 77 | 318 | 0.9 | 7.0 | 0.00 | 0.00 | 0.00 | 43 | 1014.0 |
| 20260504190519 | 76 | 137 | 1.7 | 7.0 | 0.00 | 0.00 | 0.00 | 42 | 1014.0 |
| 20260504190033 | 75 | 209 | 3.5 | 7.0 | 0.00 | 0.00 | 0.00 | 44 | 1014.1 |
| 20260504185522 | 75 | 235 | 1.7 | 5.2 | 0.00 | 0.00 | 0.00 | 44 | 1014.0 |
| 20260504185019 | 74 | 201 | 0.9 | 7.8 | 0.00 | 0.00 | 0.00 | 44 | 1014.1 |
| 20260504184536 | 74 | 222 | 2.6 | 7.8 | 0.00 | 0.00 | 0.00 | 45 | 1014.2 |
| 20260504184019 | 74 | 248 | 0.9 | 6.1 | 0.00 | 0.00 | 0.00 | 48 | 1014.1 |
| 20260504183519 | 73 | 0 | 0.0 | 7.8 | 0.00 | 0.00 | 0.00 | 50 | 1014.2 |
| 20260504183035 | 73 | 231 | 3.5 | 7.8 | 0.00 | 0.00 | 0.00 | 49 | 1014.3 |
| 20260504182523 | 74 | 269 | 1.7 | 7.0 | 0.00 | 0.00 | 0.00 | 45 | 1014.3 |
| 20260504182020 | 74 | 42 | 0.9 | 4.3 | 0.00 | 0.00 | 0.00 | 49 | 1014.2 |
| 20260504181535 | 73 | 254 | 0.0 | 5.2 | 0.00 | 0.00 | 0.00 | 47 | 1014.3 |
| 20260504181018 | 72 | 236 | 0.9 | 6.1 | 0.00 | 0.00 | 0.00 | 48 | 1014.3 |
| 20260504180520 | 73 | 218 | 2.6 | 6.1 | 0.00 | 0.00 | 0.00 | 45 | 1014.3 |
| 20260504180035 | 73 | 0 | 1.7 | 6.1 | 0.00 | 0.00 | 0.00 | 48 | 1014.2 |
| 20260504175518 | 72 | 219 | 1.7 | 7.0 | 0.00 | 0.00 | 0.00 | 50 | 1014.2 |
| 20260504175023 | 72 | 224 | 1.7 | 7.0 | 0.00 | 0.00 | 0.00 | 51 | 1014.2 |
| 20260504174536 | 71 | 257 | 1.7 | 7.0 | 0.00 | 0.00 | 0.00 | 52 | 1014.2 |
| 20260504174019 | 71 | 293 | 1.7 | 7.0 | 0.00 | 0.00 | 0.00 | 53 | 1014.1 |
| 20260504173519 | 71 | 220 | 1.7 | 5.2 | 0.00 | 0.00 | 0.00 | 52 | 1014.2 |
| 20260504173045 | 70 | 255 | 0.0 | 5.2 | 0.00 | 0.00 | 0.00 | 55 | 1014.2 |
| 20260504172518 | 70 | 215 | 1.7 | 6.1 | 0.00 | 0.00 | 0.00 | 55 | 1014.1 |
| 20260504172018 | 69 | 263 | 2.6 | 6.1 | 0.00 | 0.00 | 0.00 | 54 | 1014.1 |
| 20260504171535 | 69 | 232 | 0.9 | 5.2 | 0.00 | 0.00 | 0.00 | 55 | 1014.1 |
| 20260504171019 | 69 | 229 | 1.7 | 5.2 | 0.00 | 0.00 | 0.00 | 55 | 1014.1 |
| 20260504170518 | 69 | 248 | 1.7 | 5.2 | 0.00 | 0.00 | 0.00 | 54 | 1014.1 |
| 20260504151018 | 64 | 0 | 0.0 | 1.7 | 0.00 | 0.00 | 0.00 | 59 | 1013.7 |
| 20260504150518 | 64 | 0 | 0.0 | 0.0 | 0.00 | 0.00 | 0.00 | 61 | 1013.6 |
| 20260504141020 | 56 | 0 | 0.0 | 0.0 | 0.00 | 0.00 | 0.00 | 73 | 1013.2 |
| 20260504140519 | 55 | 0 | 0.0 | 0.0 | 0.00 | 0.00 | 0.00 | 76 | 1013.2 |
| 20260504130520 | 52 | 0 | 0.0 | 0.9 | 0.00 | 0.00 | 0.00 | 79 | 1012.7 |